SCP
0 0 0 1 0 0 0 0 0 0 0 0 0 0 0 0 0 0 0 0 0 0
0 0 0 0 0 0 -0 0 0 0 0 0 0 0 0 0 0 0 0 0 0 0
0 0 0 0 0 0 -0 -0 0 0 0 0 0 0 0 0 0 0 0 0 0 0
0 0 0 0 0 0 0 -0 0 0 0 0 0 0 0 0 0 0 0 0 0 0
0 0 0 0 0 0 -0 -0 -0 0 0 0 0 0 0 0 0 0 0 0 0 0
0 0 0 0 0 0 0 0 0 0 0 0 0 0 0 0 0 0 0 0 0 0
0 0 0 0 0 0 0 0 0 0 0 0 0 0 0 0 0 0 0 0 0 0
0 0 0 0 0 0 0 0 0 0 0 0 0 0 0 0 0 0 0 0 0 0
0 0 0 0 0 0 0 0 0 0 0 0 0 0 0 0 0 0 0 0 0 0
0 0 0 0 0 0 0 0 0 0 0 0 0 0 0 0 0 0 0 0 0 0
0 -0 0 0 0 0 0 0 0 0 0 0 0 0 0 0 0 0 0 0 0 0
0 -0 0 0 0 0 0 0 0 0 0 0 0 0 0 0 0 0 0 0 0 0
0 0 0 0 0 0 0 0 0 0 0 0 0 0 0 0 0 0 0 0 0 0
0 0 0 0 0 0 0 0 0 0 0 0 0 0 0 0 0 0 0 0 0 0
Wind_Speed_500mb
23 23 32 28 24 23 28 25 23 20 17 15 10 10 9 12 13 16 17 19 24 26
19 24 25 19 17 25 23 20 17 11 11 7 6 5 6 5 8 8 12 13 16 22
16 15 16 10 11 14 17 16 12 10 5 2 3 1 4 6 7 9 10 9 10 11
15 6 17 18 13 13 11 13 11 7 1 1 4 3 5 6 5 3 3 3 3 3
14 14 19 19 14 10 12 11 9 6 5 5 5 5 3 2 4 2 2 2 3 3
22 18 12 14 14 16 13 14 10 5 6 6 8 10 10 10 6 4 3 3 4 5
23 21 16 14 15 14 14 11 7 8 5 5 7 8 10 10 8 6 4 3 5 5
24 22 18 18 18 15 12 11 10 8 6 2 2 5 7 9 8 7 5 4 4 4
28 27 23 20 18 14 14 15 12 6 3 2 4 1 2 5 5 6 7 7 6 6
29 30 26 21 19 16 14 17 18 15 8 0 4 3 3 1 1 1 2 4 3 5
34 33 30 25 21 18 17 17 16 15 12 12 10 8 7 5 3 5 6 7 6 4
38 38 32 25 16 16 15 15 16 15 16 16 13 13 10 11 10 9 8 8 9 8
40 38 30 22 18 20 18 16 19 20 19 19 20 17 18 18 17 17 15 11 10 11
43 40 33 28 28 28 27 26 25 24 25 22 20 22 24 25 22 23 24 20 16 14
Wind_Direction_500mb
232 244 235 235 227 228 225 224 233 232 269 270 225 222 221 234 246 242 246 250 250 248
230 241 243 250 244 223 226 231 231 227 261 231 187 167 194 213 245 249 253 255 260 255
210 231 260 225 194 198 216 225 217 238 230 241 213 232 195 230 253 265 272 278 271 263
181 184 137 153 178 180 196 209 197 162 55 314 248 246 250 251 261 255 294 314 313 276
175 138 138 152 172 200 182 175 152 114 80 97 84 54 44 154 151 130 106 96 82 70
171 164 165 174 177 173 170 164 151 136 122 94 69 64 75 107 119 111 111 106 120 120
182 182 180 176 178 171 165 174 169 163 158 122 98 83 79 81 86 93 99 97 84 94
196 192 188 179 171 171 169 195 181 176 164 165 99 85 93 81 66 61 61 66 81 86
199 198 196 180 166 183 187 187 174 177 195 217 224 198 107 99 67 58 52 53 59 72
196 203 200 177 169 163 196 197 189 176 163 359 266 282 302 87 101 322 298 351 30 60
200 205 201 182 171 159 188 209 216 216 217 199 190 222 242 248 234 262 265 285 290 278
200 205 204 201 187 196 187 209 230 244 265 253 229 217 233 257 263 262 266 277 271 260
204 208 210 213 216 225 223 217 229 246 258 249 247 239 235 254 248 253 260 276 274 261
210 214 215 224 235 241 247 248 248 249 257 261 261 251 247 250 253 255 255 256 260 264
Wind_Speed_850mb
23 23 32 28 24 23 28 25 23 20 17 15 10 10 9 12 13 16 17 19 24 26
19 24 25 19 17 25 23 20 17 11 11 7 6 5 6 5 8 8 12 13 16 22
16 15 16 10 11 14 17 16 12 10 5 2 3 1 4 6 7 9 10 9 10 11
15 6 17 18 13 13 11 13 11 7 1 1 4 3 5 6 5 3 3 3 3 3
14 14 19 19 14 10 12 11 9 6 5 5 5 5 3 2 4 2 2 2 3 3
22 18 12 14 14 16 13 14 10 5 6 6 8 10 10 10 6 4 3 3 4 5
23 21 16 14 15 14 14 11 7 8 5 5 7 8 10 10 8 6 4 3 5 5
24 22 18 18 18 15 12 11 10 8 6 2 2 5 7 9 8 7 5 4 4 4
28 27 23 20 18 14 14 15 12 6 3 2 4 1 2 5 5 6 7 7 6 6
29 30 26 21 19 16 14 17 18 15 8 0 4 3 3 1 1 1 2 4 3 5
34 33 30 25 21 18 17 17 16 15 12 12 10 8 7 5 3 5 6 7 6 4
38 38 32 25 16 16 15 15 16 15 16 16 13 13 10 11 10 9 8 8 9 8
40 38 30 22 18 20 18 16 19 20 19 19 20 17 18 18 17 17 15 11 10 11
43 40 33 28 28 28 27 26 25 24 25 22 20 22 24 25 22 23 24 20 16 14
Wind_Direction_850mb
232 244 235 235 227 228 225 224 233 232 269 270 225 222 221 234 246 242 246 250 250 248
230 241 243 250 244 223 226 231 231 227 261 231 187 167 194 213 245 249 253 255 260 255
210 231 260 225 194 198 216 225 217 238 230 241 213 232 195 230 253 265 272 278 271 263
181 184 137 153 178 180 196 209 197 162 55 314 248 246 250 251 261 255 294 314 313 276
175 138 138 152 172 200 182 175 152 114 80 97 84 54 44 154 151 130 106 96 82 70
171 164 165 174 177 173 170 164 151 136 122 94 69 64 75 107 119 111 111 106 120 120
182 182 180 176 178 171 165 174 169 163 158 122 98 83 79 81 86 93 99 97 84 94
196 192 188 179 171 171 169 195 181 176 164 165 99 85 93 81 66 61 61 66 81 86
199 198 196 180 166 183 187 187 174 177 195 217 224 198 107 99 67 58 52 53 59 72
196 203 200 177 169 163 196 197 189 176 163 359 266 282 302 87 101 322 298 351 30 60
200 205 201 182 171 159 188 209 216 216 217 199 190 222 242 248 234 262 265 285 290 278
200 205 204 201 187 196 187 209 230 244 265 253 229 217 233 257 263 262 266 277 271 260
204 208 210 213 216 225 223 217 229 246 258 249 247 239 235 254 248 253 260 276 274 261
210 214 215 224 235 241 247 248 248 249 257 261 261 251 247 250 253 255 255 256 260 264